Home > Weather > Riehen > Past weeks

Flag for Switzerland Past Weather in Riehen, Basel-Stadt, Switzerland — Yesterday and Last 2 Weeks

Now
66 °F

Mild.


Feels Like: 66 °F
Forecast: 62 / 79 °F
Wind: 1 mph from Southwest

Location: Bale-Mulhouse

Current Time: Jul 25, 2016 at 4:27:41 AM

Latest Report: Jul 25, 2016 at 3:00 AM


Visibility: 5 mi

Pressure: 30.11 "Hg

Humidity: 89%

Dew Point: 63 °F

Location of RiehenLocation

Past Weather in Riehen — Graph

°F

Riehen Temperature Yesterday

Maximum temperature yesterday: 80 °F (at 3:00 PM)
Minimum temperature yesterday: 63 °F (at 6:00 AM)
Average temperature yesterday: 72 °F

High & Low Weather Summary for the Past Weeks

 TemperatureHumidityPressure
High95 °F (Jul 20, 4:00 PM)98% (Jul 16, 7:00 AM)30.37 "Hg (Jul 16, 7:00 AM)
Low45 °F (Jul 16, 5:00 AM)30% (Jul 19, 6:00 PM)29.84 "Hg (Jul 10, 6:00 PM)
Average68 °F73%30.07 "Hg
* Reported Jul 10 3:00 AM — Jul 25 3:00 AM, Riehen, Weather by CustomWeather, © 2016

Note: Actual official high and low records may vary slightly from our data, if they occured in-between our weather recording intervals... More about our weather records

Advertising

Riehen Weather History for the Previous 24 Hours

Scroll right to see more
 ConditionsComfort  
Time TempWeatherWind HumidityBarometerVisibility
3:00 AM
Mon, Jul 25
66 °FMild.1 mph89%30.11 "Hg5 mi
2:00 AM68 °FOvercast.2 mph86%30.11 "Hg7 mi
1:00 AM69 °FOvercast.5 mph83%30.11 "Hg9 mi
12:00 AM70 °FOvercast.5 mph77%30.12 "Hg25 mi
11:00 PM
Sun, Jul 24
71 °FOvercast.6 mph78%30.11 "Hg25 mi
10:00 PM71 °FPassing clouds.5 mph74%30.09 "Hg25 mi
9:00 PM72 °FPartly sunny.5 mph72%30.07 "Hg25 mi
8:00 PM76 °FScattered clouds.6 mph61%30.06 "Hg25 mi
7:00 PM78 °FScattered clouds.7 mph58%30.03 "Hg25 mi
6:00 PM80 °FScattered clouds.7 mph56%30.04 "Hg25 mi
5:00 PM79 °FPartly sunny.9 mph56%30.05 "Hg25 mi
4:00 PM78 °FPartly sunny.9 mph59%30.06 "Hg25 mi
3:00 PM80 °FPartly sunny.5 mph53%30.06 "Hg25 mi
2:00 PM78 °FPartly sunny.5 mph55%30.07 "Hg19 mi
1:00 PM77 °FPartly sunny.3 mph62%30.07 "Hg19 mi
12:00 PM75 °FPartly sunny.6 mph65%30.07 "Hg16 mi
11:00 AM74 °FPartly sunny.2 mph68%30.09 "Hg14 mi
10:00 AM73 °FScattered clouds.3 mph71%30.09 "Hg12 mi
9:00 AM69 °FPartly sunny.2 mph80%30.10 "Hg11 mi
8:00 AM67 °FPartly sunny.1 mph84%30.10 "Hg9 mi
7:00 AM65 °FScattered clouds.2 mph92%30.10 "Hg9 mi
6:00 AM63 °FPartly sunny.5 mph94%30.10 "Hg7 mi
5:00 AM63 °FPassing clouds.3 mph92%30.10 "Hg12 mi
4:00 AM64 °FMild.1 mph88%30.10 "Hg12 mi
Weather by CustomWeather, © 2016

See weather overviewHow to use our weather pages